Location: Doux
(49.5045°N, 4.4321°E)
Time: 02:54:06
(UTC+00:00)

Cosmos 2221 Rocket - Pass Details

Date: 23 May 2024
Orbit: 617 x 646 km, 82.5° (Epoch: 21 June)

Event Time Altitude Azimuth Distance (km) Brightness Sun altitude
Exits shadow 02:28:28 - 173° (S) 2,595 6.3 -10.4°
Reaches altitude 10° 02:29:52 10° 170° (S) 2,041 5.8 -10.3°
Maximum altitude 02:34:16 52° 94° (E) 804 4.4 -9.8°
Drops below altitude 10° 02:38:42 10° 19° (NNE) 2,049 7.4 -9.3°
Sets 02:40:59 0° 14° (NNE) 2,960 8.3 -9.1°
